HISPASAT 1D

Last updated on Sat Mar 09 2019 03:10:46 GMT+0000 (Coordinated Universal Time)

1 27528U 02044A 19067.43934715 -.00000224 00000-0 00000+0 0 9991 2 27528 0.0461 350.1422 0005609 358.7593 304.8532 1.00275495 60299
UTC large
Height (km)
Speed (km/s)
/
Latitude / Longitude
Inclination (degrees)
Orbital Period (minutes)
Azimuth
Elevation
Range (km)
Doppler Factor

Next 0 passes for location: London (51.5072 / 0.1276)

Sorry there are no passes over London.
HISPASAT 1D